Date String (YYYY-MM-DD hh:mm:ss) UTC,Instrument flags,absolute air pressure of the measurement (hPa),sample flow rate (lpm),inlet stack bypass flow (lpm),air temperature of the measurement (°C),ambient temperature measured by the external sensor (°C),aerosol sample conditioner tube jacket temperature (°C),OPC LED temperature (°C),internal box temperature (°C),relative humidity of the measurement (%),span deviation,mass concentration of particles derived from Lorenz-Mie calculation of OPC scattering (μg/m³),mass concentration of particles derived from Lorenz-Mie calculation of OPC scattering (μg/m³),mass concentration of particles derived from Lorenz-Mie calculation of OPC scattering (μg/m³)
DateTimeUTC,F1_M11,P_M11,Q1_M11,Q2_M11,T1_M11,T2_M11,T3_M11,T4_M11,T5_M11,U1_M11,ZSPAN_M11,X0_M11,X2_M11,X1_M11
2023-08-10 02:00:00,SystemResetWarning,0830.0,5.00,000.00,029.1,026.6,000.0,037.5,030.7,24.2,0000.0,0014.84,0005.34,0004.54
2023-08-10 02:01:00,SystemResetWarning,0830.0,5.00,000.00,029.1,027.0,000.0,037.5,030.8,24.2,0000.0,0014.24,0005.33,0004.53
2023-08-10 02:02:00,SystemResetWarning,0830.0,4.98,000.00,029.2,027.3,000.0,037.5,030.9,24.2,0000.0,0013.17,0005.34,0004.53
2023-08-10 02:03:00,SystemResetWarning,0830.0,5.00,000.00,029.2,027.6,000.0,037.6,030.9,24.2,0000.0,0013.79,0005.30,0004.52
2023-08-10 02:04:00,SystemResetWarning,0830.1,5.01,000.00,029.3,027.8,000.0,037.6,031.0,24.3,0000.0,0014.35,0005.29,0004.52
2023-08-10 02:05:00,SystemResetWarning,0830.1,4.97,000.00,029.3,027.1,000.0,037.5,030.9,24.3,0000.0,0015.18,0005.29,0004.53
2023-08-10 02:06:00,SystemResetWarning,0830.0,5.01,000.00,029.2,025.3,000.0,037.4,030.6,24.4,0000.0,0015.38,0005.26,0004.53
2023-08-10 02:07:00,SystemResetWarning,0830.0,5.01,000.00,029.1,024.6,000.0,037.3,030.4,24.5,0000.0,0015.35,0005.21,0004.53
2023-08-10 02:08:00,SystemResetWarning,0830.0,5.00,000.00,029.0,024.8,000.0,037.3,030.2,24.7,0000.0,0015.14,0005.20,0004.52
2023-08-10 02:09:00,SystemResetWarning,0830.1,5.00,000.00,029.0,025.3,000.0,037.4,030.2,24.9,0000.0,0015.30,0005.21,0004.52
2023-08-10 02:10:00,SystemResetWarning,0830.0,5.01,000.00,029.0,025.8,000.0,037.4,030.4,24.9,0000.0,0014.97,0005.19,0004.53
2023-08-10 02:11:00,SystemResetWarning,0830.0,5.00,000.00,029.0,026.3,000.0,037.4,030.5,24.9,0000.0,0014.54,0005.22,0004.54
2023-08-10 02:12:00,SystemResetWarning,0830.1,5.00,000.00,029.0,026.7,000.0,037.4,030.6,24.9,0000.0,0014.97,0005.21,0004.55
2023-08-10 02:13:00,SystemResetWarning,0830.1,5.00,000.00,029.0,027.0,000.0,037.4,030.7,24.9,0000.0,0015.14,0005.22,0004.54
2023-08-10 02:14:00,SystemResetWarning,0830.1,4.99,000.00,029.1,027.3,000.0,037.5,030.8,24.8,0000.0,0014.75,0005.24,0004.54
2023-08-10 02:15:00,SystemResetWarning,0830.1,4.99,000.00,029.1,027.6,000.0,037.5,030.9,24.8,0000.0,0014.17,0005.24,0004.55
2023-08-10 02:16:00,SystemResetWarning,0830.2,5.00,000.00,029.2,027.9,000.0,037.5,031.0,24.7,0000.0,0013.43,0005.27,0004.55
2023-08-10 02:17:00,SystemResetWarning,0830.3,5.00,000.00,029.2,028.0,000.0,037.6,031.0,24.6,0000.0,0013.41,0005.29,0004.55
2023-08-10 02:18:00,SystemResetWarning,0830.3,5.00,000.00,029.3,026.8,000.0,037.5,030.9,24.5,0000.0,0013.85,0005.38,0004.55
2023-08-10 02:19:00,SystemResetWarning,0830.2,5.00,000.00,029.2,025.0,000.0,037.4,030.5,24.5,0000.0,0012.93,0005.40,0004.56
2023-08-10 02:20:00,SystemResetWarning,0830.2,5.01,000.00,029.1,024.5,000.0,037.3,030.3,24.5,0000.0,0013.09,0005.39,0004.56
2023-08-10 02:21:00,SystemResetWarning,0830.2,5.01,000.00,029.0,024.8,000.0,037.3,030.2,24.7,0000.0,0012.81,0005.38,0004.56
2023-08-10 02:22:00,SystemResetWarning,0830.2,5.00,000.00,028.9,025.3,000.0,037.3,030.2,24.8,0000.0,0012.58,0005.36,0004.55
2023-08-10 02:23:00,SystemResetWarning,0830.2,5.00,000.00,028.9,025.8,000.0,037.3,030.3,24.9,0000.0,0012.25,0005.36,0004.55
2023-08-10 02:24:00,SystemResetWarning,0830.2,5.00,000.00,028.9,026.3,000.0,037.4,030.5,25.1,0000.0,0011.96,0005.36,0004.56
2023-08-10 02:25:00,SystemResetWarning,0830.3,5.00,000.00,028.9,026.7,000.0,037.4,030.6,25.1,0000.0,0011.83,0005.36,0004.57
2023-08-10 02:26:00,SystemResetWarning,0830.2,5.00,000.00,029.0,027.0,000.0,037.4,030.7,24.9,0000.0,0011.86,0005.38,0004.57
2023-08-10 02:27:00,SystemResetWarning,0830.2,5.00,000.00,029.0,027.3,000.0,037.4,030.8,24.8,0000.0,0011.88,0005.38,0004.57
2023-08-10 02:28:00,SystemResetWarning,0830.2,5.00,000.00,029.1,027.6,000.0,037.5,030.8,24.7,0000.0,0012.22,0005.40,0004.58
2023-08-10 02:29:00,SystemResetWarning,0830.2,5.00,000.00,029.1,027.8,000.0,037.5,030.9,24.7,0000.0,0011.48,0005.35,0004.59
2023-08-10 02:30:00,SystemResetWarning,0830.3,5.00,000.00,029.2,028.0,000.0,037.5,031.0,24.6,0000.0,0011.41,0005.33,0004.59
2023-08-10 02:31:00,SystemResetWarning,0830.3,5.00,000.00,029.2,028.1,000.0,037.5,031.0,24.5,0000.0,0010.94,0005.31,0004.59
2023-08-10 02:32:00,SystemResetWarning,0830.2,4.99,000.00,029.3,026.6,000.0,037.4,030.8,24.5,0000.0,0010.75,0005.35,0004.60
2023-08-10 02:33:00,SystemResetWarning,0830.3,5.01,000.00,029.2,025.6,000.0,037.3,030.6,24.6,0000.0,0010.94,0005.38,0004.61
2023-08-10 02:34:00,SystemResetWarning,0830.3,5.00,000.00,029.1,025.6,000.0,037.3,030.5,24.7,0000.0,0011.41,0005.40,0004.60
2023-08-10 02:35:00,SystemResetWarning,0830.3,5.01,000.00,029.1,025.9,000.0,037.4,030.4,24.9,0000.0,0011.92,0005.39,0004.60
2023-08-10 02:36:00,SystemResetWarning,0830.3,5.01,000.00,029.0,026.3,000.0,037.4,030.5,25.3,0000.0,0012.13,0005.37,0004.59
2023-08-10 02:37:00,SystemResetWarning,0830.3,4.99,000.00,029.1,026.7,000.0,037.5,030.7,25.8,0000.0,0012.32,0005.39,0004.60
2023-08-10 02:38:00,SystemResetWarning,0830.3,4.99,000.00,029.1,027.0,000.0,037.5,030.8,25.8,0000.0,0012.80,0005.39,0004.62
2023-08-10 02:39:00,SystemResetWarning,0830.3,5.00,000.00,029.1,027.3,000.0,037.5,030.9,25.3,0000.0,0012.26,0005.38,0004.62
2023-08-10 02:40:00,SystemResetWarning,0830.3,5.00,000.00,029.2,027.6,000.0,037.6,030.9,24.9,0000.0,0012.34,0005.43,0004.62
2023-08-10 02:41:00,SystemResetWarning,0830.4,5.01,000.00,029.2,027.9,000.0,037.6,031.0,25.0,0000.0,0012.66,0005.46,0004.62
2023-08-10 02:42:00,SystemResetWarning,0830.4,5.00,000.00,029.3,027.6,000.0,037.6,031.0,25.0,0000.0,0013.47,0005.50,0004.64
2023-08-10 02:43:00,SystemResetWarning,0830.3,4.99,000.00,029.2,026.0,000.0,037.5,030.7,25.1,0000.0,0013.75,0005.50,0004.64
2023-08-10 02:44:00,SystemResetWarning,0830.4,5.00,000.00,029.2,025.4,000.0,037.4,030.6,25.0,0000.0,0013.61,0005.50,0004.65
2023-08-10 02:45:00,SystemResetWarning,0830.3,5.01,000.00,029.1,025.6,000.0,037.4,030.4,25.0,0000.0,0013.11,0005.53,0004.67
2023-08-10 02:46:00,SystemResetWarning,0830.4,5.00,000.00,029.0,026.0,000.0,037.4,030.5,25.1,0000.0,0013.54,0005.55,0004.69
2023-08-10 02:47:00,SystemResetWarning,0830.4,5.00,000.00,029.0,026.4,000.0,037.5,030.6,25.1,0000.0,0013.54,0005.60,0004.71
2023-08-10 02:48:00,SystemResetWarning,0830.4,5.00,000.00,029.1,026.8,000.0,037.5,030.7,25.0,0000.0,0013.53,0005.60,0004.71
2023-08-10 02:49:00,SystemResetWarning,0830.5,5.00,000.00,029.1,027.1,000.0,037.5,030.8,25.0,0000.0,0012.78,0005.60,0004.71
2023-08-10 02:50:00,SystemResetWarning,0830.4,5.00,000.00,029.1,027.4,000.0,037.6,030.9,25.0,0000.0,0012.67,0005.66,0004.73
2023-08-10 02:51:00,SystemResetWarning,0830.4,5.00,000.00,029.2,027.7,000.0,037.6,030.9,25.1,0000.0,0013.30,0005.67,0004.73
2023-08-10 02:52:00,SystemResetWarning,0830.5,5.00,000.00,029.2,027.9,000.0,037.6,031.0,25.0,0000.0,0013.42,0005.69,0004.74
2023-08-10 02:53:00,SystemResetWarning,0830.5,4.99,000.00,029.3,027.8,000.0,037.6,031.1,24.9,0000.0,0013.04,0005.70,0004.74
2023-08-10 02:54:00,SystemResetWarning,0830.5,4.99,000.00,029.3,026.3,000.0,037.5,030.8,24.9,0000.0,0012.95,0005.69,0004.73
2023-08-10 02:55:00,SystemResetWarning,0830.5,5.00,000.00,029.2,025.5,000.0,037.4,030.6,24.9,0000.0,0013.85,0005.70,0004.74
2023-08-10 02:56:00,SystemResetWarning,0830.5,5.01,000.00,029.1,025.6,000.0,037.4,030.5,25.0,0000.0,0014.11,0005.66,0004.74
2023-08-10 02:57:00,SystemResetWarning,0830.6,5.02,000.00,029.1,025.9,000.0,037.5,030.5,25.0,0000.0,0013.87,0005.68,0004.75
2023-08-10 02:58:00,SystemResetWarning,0830.5,5.00,000.00,029.1,026.4,000.0,037.5,030.6,25.1,0000.0,0013.71,0005.68,0004.74
2023-08-10 02:59:00,SystemResetWarning,0830.8,4.99,000.00,029.1,026.7,000.0,037.5,030.7,25.1,0000.4,0014.21,0005.69,0004.74
